Tracking 17138 objects as of 7-July-2015
HD Live streaming from Space Station

COSMOS 1596

Track COSMOS 1596 now!
COSMOS 1596 is classified as:


NORAD ID: 15267
Int'l Code: 1984-096A
Perigee: 4,743.1 km
Apogee: 35,663.0 km
Inclination: 67.6 °
Period: 718.5 minutes
Semi major axis: 26574 km
RCS: 8.4284 m2 (large)
Launch date: September 7, 1984
Source: Commonwealth of Independent States (former USSR) (CIS)
Your satellite tracking list
Your tracking list is empty





NASA's NSSDC Master Catalog

Two Line Element Set (TLE):
1 15267U 84096A   15187.50621189 -.00000879  00000-0 -68290-1 0  9994
2 15267 067.6191 047.1485 5817690 107.0209 355.1785 02.00408642225860

Source of the keplerian elements: AFSPC

N2YO: 462